TimeEST,TemperatureF,Dew PointF,Humidity,Sea Level PressureIn,VisibilityMPH,Wind Direction,Wind SpeedMPH,Gust SpeedMPH,PrecipitationIn,Events,Conditions,WindDirDegrees,DateUTC
12:15 AM,39.2,35.6,87,29.61,10.0,SW,10.4,17.3,N/A,,Overcast,230,2013-02-27 05:15:00
12:35 AM,39.2,35.6,87,29.61,10.0,SW,10.4,-,N/A,,Overcast,230,2013-02-27 05:35:00
12:55 AM,39.2,35.6,87,29.62,10.0,SW,11.5,18.4,N/A,,Overcast,230,2013-02-27 05:55:00
1:15 AM,39.2,35.6,87,29.62,10.0,SW,11.5,16.1,N/A,,Overcast,230,2013-02-27 06:15:00
1:35 AM,39.2,35.6,87,29.63,7.0,WSW,9.2,-,N/A,,Overcast,240,2013-02-27 06:35:00
1:55 AM,39.2,35.6,87,29.63,10.0,SW,11.5,17.3,N/A,,Overcast,230,2013-02-27 06:55:00
2:35 AM,39.2,35.6,87,29.63,10.0,SW,11.5,17.3,N/A,,Overcast,230,2013-02-27 07:35:00
2:55 AM,39.2,33.8,81,29.64,10.0,SW,10.4,19.6,N/A,,Overcast,230,2013-02-27 07:55:00
3:15 AM,39.2,33.8,81,29.64,10.0,SW,12.7,17.3,N/A,,Overcast,230,2013-02-27 08:15:00
3:35 AM,39.2,33.8,81,29.64,10.0,WSW,11.5,18.4,N/A,,Overcast,240,2013-02-27 08:35:00
3:55 AM,39.2,33.8,81,29.65,10.0,SW,12.7,19.6,N/A,,Overcast,230,2013-02-27 08:55:00
4:15 AM,39.2,33.8,81,29.65,10.0,SW,16.1,19.6,N/A,,Overcast,220,2013-02-27 09:15:00
4:35 AM,39.2,33.8,81,29.66,10.0,SW,16.1,21.9,N/A,,Overcast,220,2013-02-27 09:35:00
4:55 AM,39.2,33.8,81,29.66,10.0,WSW,18.4,26.5,N/A,,Overcast,240,2013-02-27 09:55:00
5:15 AM,39.2,32.0,75,29.67,10.0,SW,15.0,23.0,N/A,,Overcast,230,2013-02-27 10:15:00
5:35 AM,39.2,32.0,75,29.67,10.0,WSW,13.8,23.0,N/A,,Overcast,240,2013-02-27 10:35:00
5:55 AM,37.4,33.8,87,29.68,10.0,WSW,13.8,24.2,N/A,,Overcast,240,2013-02-27 10:55:00
6:15 AM,37.4,33.8,87,29.69,10.0,SW,11.5,21.9,N/A,,Overcast,230,2013-02-27 11:15:00
6:35 AM,37.4,33.8,87,29.70,10.0,SW,10.4,-,N/A,,Overcast,230,2013-02-27 11:35:00
6:55 AM,37.4,33.8,87,29.70,10.0,SW,15.0,21.9,N/A,,Overcast,230,2013-02-27 11:55:00
7:35 AM,37.4,33.8,87,29.72,10.0,SW,10.4,-,N/A,,Overcast,230,2013-02-27 12:35:00
7:55 AM,37.4,33.8,87,29.73,10.0,SW,12.7,16.1,N/A,,Overcast,230,2013-02-27 12:55:00
8:15 AM,37.4,33.8,87,29.73,10.0,SW,11.5,-,N/A,,Overcast,220,2013-02-27 13:15:00
8:35 AM,37.4,33.8,87,29.74,7.0,WSW,13.8,17.3,N/A,,Overcast,240,2013-02-27 13:35:00
9:15 AM,37.4,33.8,87,29.76,10.0,WSW,13.8,23.0,N/A,,Overcast,240,2013-02-27 14:15:00
9:35 AM,37.4,33.8,87,29.76,7.0,SW,11.5,-,N/A,,Overcast,220,2013-02-27 14:35:00
9:55 AM,37.4,33.8,87,29.77,5.0,WSW,12.7,20.7,N/A,,Overcast,240,2013-02-27 14:55:00
10:15 AM,37.4,33.8,87,29.77,10.0,SW,17.3,21.9,N/A,,Overcast,230,2013-02-27 15:15:00
10:35 AM,37.4,33.8,87,29.76,10.0,SW,13.8,17.3,N/A,,Overcast,230,2013-02-27 15:35:00
10:55 AM,37.4,33.8,87,29.76,10.0,SW,12.7,-,N/A,,Overcast,230,2013-02-27 15:55:00
11:15 AM,37.4,33.8,87,29.76,5.0,SW,12.7,23.0,N/A,,Overcast,230,2013-02-27 16:15:00
11:35 AM,37.4,33.8,87,29.76,10.0,SW,13.8,18.4,N/A,,Overcast,230,2013-02-27 16:35:00
11:55 AM,39.2,33.8,81,29.76,10.0,SW,12.7,-,N/A,,Overcast,230,2013-02-27 16:55:00
12:15 PM,39.2,33.8,81,29.75,10.0,SW,17.3,21.9,N/A,,Overcast,230,2013-02-27 17:15:00
12:35 PM,39.2,33.8,81,29.76,10.0,SW,15.0,20.7,N/A,,Overcast,220,2013-02-27 17:35:00
12:55 PM,37.4,33.8,87,29.76,7.0,WSW,17.3,24.2,N/A,,Overcast,240,2013-02-27 17:55:00
1:15 PM,39.2,33.8,81,29.75,10.0,WSW,11.5,23.0,N/A,,Overcast,240,2013-02-27 18:15:00
1:35 PM,39.2,32.0,75,29.74,7.0,WSW,16.1,21.9,N/A,,Overcast,240,2013-02-27 18:35:00
1:55 PM,39.2,32.0,75,29.74,7.0,WSW,17.3,26.5,N/A,,Overcast,240,2013-02-27 18:55:00
2:15 PM,37.4,33.8,87,29.73,7.0,WSW,12.7,19.6,N/A,,Overcast,240,2013-02-27 19:15:00
2:35 PM,37.4,32.0,81,29.73,10.0,WSW,12.7,20.7,N/A,,Overcast,250,2013-02-27 19:35:00
2:55 PM,37.4,32.0,81,29.74,10.0,West,18.4,23.0,N/A,,Overcast,260,2013-02-27 19:55:00
3:15 PM,37.4,32.0,81,29.74,10.0,WSW,11.5,19.6,N/A,,Overcast,250,2013-02-27 20:15:00
3:35 PM,37.4,32.0,81,29.75,10.0,WSW,13.8,23.0,N/A,,Overcast,240,2013-02-27 20:35:00
3:55 PM,37.4,32.0,81,29.75,10.0,WSW,16.1,24.2,N/A,,Overcast,250,2013-02-27 20:55:00
4:15 PM,37.4,32.0,81,29.76,10.0,WSW,17.3,28.8,N/A,,Overcast,250,2013-02-27 21:15:00
4:35 PM,35.6,32.0,87,29.77,10.0,WSW,16.1,20.7,N/A,,Overcast,250,2013-02-27 21:35:00
5:15 PM,35.6,32.0,87,29.77,10.0,WSW,17.3,24.2,N/A,,Overcast,250,2013-02-27 22:15:00
5:35 PM,35.6,32.0,87,29.78,7.0,WSW,13.8,20.7,N/A,,Overcast,250,2013-02-27 22:35:00
6:15 PM,33.8,32.0,93,29.79,5.0,WSW,15.0,19.6,N/A,,Overcast,250,2013-02-27 23:15:00
6:35 PM,33.8,32.0,93,29.79,5.0,WSW,10.4,-,N/A,,Overcast,250,2013-02-27 23:35:00
6:55 PM,33.8,32.0,93,29.80,10.0,WSW,13.8,18.4,N/A,,Overcast,240,2013-02-27 23:55:00
7:15 PM,33.8,32.0,93,29.80,5.0,WSW,9.2,-,N/A,,Overcast,250,2013-02-28 00:15:00
7:35 PM,33.8,32.0,93,29.81,7.0,WSW,11.5,-,N/A,,Overcast,250,2013-02-28 00:35:00
7:55 PM,33.8,32.0,93,29.81,4.0,WSW,10.4,-,N/A,,Overcast,240,2013-02-28 00:55:00
8:15 PM,33.8,32.0,93,29.81,4.0,SW,8.1,-,N/A,,Overcast,230,2013-02-28 01:15:00
8:35 PM,33.8,32.0,93,29.81,10.0,WSW,11.5,16.1,N/A,,Overcast,240,2013-02-28 01:35:00
9:15 PM,33.8,32.0,93,29.80,10.0,WSW,10.4,-,N/A,,Overcast,240,2013-02-28 02:15:00
9:35 PM,33.8,30.2,87,29.80,10.0,SW,11.5,-,N/A,,Overcast,230,2013-02-28 02:35:00
9:55 PM,33.8,30.2,87,29.79,10.0,SW,9.2,-,N/A,,Mostly Cloudy,230,2013-02-28 02:55:00
10:15 PM,33.8,30.2,87,29.79,10.0,SW,9.2,-,N/A,,Scattered Clouds,230,2013-02-28 03:15:00
10:35 PM,33.8,30.2,87,29.79,7.0,SW,10.4,-,N/A,,Mostly Cloudy,230,2013-02-28 03:35:00
10:55 PM,33.8,32.0,93,29.79,7.0,SW,9.2,-,N/A,,Overcast,230,2013-02-28 03:55:00
11:55 PM,33.8,30.2,87,29.78,10.0,WSW,10.4,-,N/A,,Overcast,240,2013-02-28 04:55:00